Regional Weather Roundup
Issued by NWS

Home | Current Version | Previous Version | Graphics & Text | Print | Product List | Glossary On
Versions: 1 2 3 4 5 6 7 8 9 10 11 12 13 14 15 16 17 18 19 20 21 22 23 24 25 26 27 28 29 30 31 32 33 34 35 36 37 38 39 40 41 42 43 44 45 46 47 48 49 50
551
ASUS44 KJAN 281303
RWRMS

MISSISSIPPI HOURLY WEATHER ROUNDUP
NATIONAL WEATHER SERVICE JACKSON MS
700 AM CST SAT FEB 28 2015

NOTE: "FAIR: INDICATES FEW OR NO CLOUDS BELOW 12,000 FEET WITH NO
SIGNIFICANT WEATHER AND/OR OBSTRUCTIONS TO VISIBILITY.

MSZ001>002-007>008-010>013-018>021-025>028-034>036-281400-
NORTHWEST MISSISSIPPI

CITY           SKY/WX    TMP DP  RH WIND       PRES   REMARKS
CLARKSDALE     CLOUDY    30  21  69 N10       30.54R WCI  21
CLEVELAND      CLOUDY    31  24  76 NE10      30.51R WCI  22
GREENWOOD        N/A    N/A N/A N/A MISG      30.50R
GREENVILLE     CLOUDY    31  24  75 NE13      30.49R WCI  21
OLIVE BRANCH   CLOUDY    28  18  64 NE12      30.54S WCI  18
OXFORD           N/A     28  16  59 NE7       30.52S WCI  21
TUNICA         CLOUDY    30  21  69 NE9       30.55S WCI  22
$$

MSZ003>006-009-014>017-022>024-029>033-037>039-281400-
NORTHEAST MISSISSIPPI

CITY           SKY/WX    TMP DP  RH WIND       PRES   REMARKS
COLUMBUS AFB   NOT AVBL
CORINTH        CLOUDY    30  12  47 NE8       30.54R WCI  23
GOLDN TRIANGLE MOCLDY    34  18  51 E5        30.49R WCI  30
STARKVILLE     FAIR      34  23  64 NE6       30.50R WCI  29
TUPELO         CLOUDY    31  16  54 NE8       30.53R WCI  23
$$

MSZ040-058-281400-
CENTRAL MISSISSIPPI

CITY           SKY/WX    TMP DP  RH WIND       PRES   REMARKS
JACKSON INTL   PTCLDY    32  22  66 NE3       30.44F
JACKSON HAWKNS CLEAR     34  21  59 E6        30.45S WCI  29
MERIDIAN KEY   PTCLDY    35  21  56 NE6       30.48R WCI  30
MERIDIAN NAS   PTCLDY    33  22  63 CALM      30.49R
VICKSBURG      CLEAR     32  27  81 N8        30.45S WCI  25
$$

MSZ059>079-281400-
SOUTH MISSISSIPPI

CITY           SKY/WX    TMP DP  RH WIND       PRES   REMARKS
BROOKHAVEN     FAIR      32  27  80 E5        30.43F WCI  27
HATTIESBURG    CLEAR     29  26  89 N3        30.48R
MCCOMB         CLEAR     33  22  63 E7        30.41F WCI  27
NATCHEZ        PTCLDY    32  21  64 E3        30.42R
PINE BELT      CLEAR     30  21  69 NE6       30.46R WCI  24
$$

MSZ080>082-281400-
COASTAL MISSISSIPPI

CITY           SKY/WX    TMP DP  RH WIND       PRES   REMARKS
BILOXI         NOT AVBL
PASCAGOULA     CLEAR     36  27  69 NE8       30.43R WCI  30
GULFPORT       CLEAR     36  24  62 N12       30.43R WCI  28
$$



USA.gov is the U.S. government's official web portal to all federal, state and local government web resources and services.